Marrakech, Morocco

4:28 AM WET on February 24, 2018 (GMT +0000)
Marrakech

Weather History for GMMX - July, 2013

Change the Weather History Date:

Tuesday, July 23, 2013

  Actual Average Record
Temperature  
Mean Temperature 80 °F -  
Max Temperature 98 °F 94 °F 112 °F (2015)
Min Temperature 63 °F 67 °F 62 °F (2011)
Cooling Degree Days 16    
Growing Degree Days 30 (Base 50)    
Moisture  
Dew Point 58 °F    
Average Humidity 49    
Maximum Humidity 88    
Minimum Humidity 12    
Precipitation  
Precipitation 0.00 in 0.00 in - ()
Sea Level Pressure  
Sea Level Pressure 30.00 in    
Wind  
Wind Speed 6 mph ()    
Max Wind Speed 15 mph    
Max Gust Speed -    
Visibility 6.1 miles    
Events      
Averages and records for this station are not official NWS values.
T = Trace of Precipitation, MM = Missing Value Source: Averaged Metar Reports

Daily Weather History Graph

Daily Weather History Graph

Search for Another Location

Airport or City:

Trip Planner

Search our weather history database for the weather conditions in past years. The results will help you decide how hot, cold, wet, or windy it might be!

Date:

Astronomy

Jul. 23, 2013 Rise Set
Actual Time 5:42 AM WET 7:34 PM WET
Civil Twilight 5:15 AM WET 8:01 PM WET
Nautical Twilight 4:42 AM WET 8:34 PM WET
Astronomical Twilight 4:07 AM WET 9:08 PM WET
Moon 8:02 PM WET (7/23) 6:27 AM WET (7/23)
Length of Visible Light 14h 46m
Length of Day
13h 52m
Full, 99% of the Moon is Illuminated
Jul 23
Full
Jul 29
Last Quarter
Aug 6
New
Aug 14
First Quarter
Aug 21
Full

Hourly Weather History & Observations

Time (WET) Temp. Heat Index Dew Point Humidity Pressure Visibility Wind Dir Wind Speed Gust Speed Precip Events Conditions
12:00 AM 75 °F - 60 °F 50% 29.98 in 6 mi SW 8.1 mph - -   Scattered Clouds
12:00 AM 75.2 °F - 60.8 °F 61% 30.04 in 6.2 mi SW 8.1 mph - N/A   Scattered Clouds
12:30 AM 73.4 °F - 59.0 °F 61% 30.04 in 6.2 mi SW 8.1 mph - N/A   Scattered Clouds
1:00 AM 73.4 °F - 59.0 °F 61% 30.04 in 6.2 mi WSW 6.9 mph - N/A   Scattered Clouds
1:30 AM 71.6 °F - 59.0 °F 64% 30.04 in 6.2 mi WSW 5.8 mph - N/A   Scattered Clouds
2:00 AM 69.8 °F - 59.0 °F 68% 30.01 in 6.2 mi WSW 4.6 mph - N/A   Scattered Clouds
2:30 AM 69.8 °F - 60.8 °F 73% 30.01 in 6.2 mi WSW 4.6 mph - N/A   Scattered Clouds
3:00 AM 70 °F - 60 °F 63% 29.96 in 6 mi SW 4.6 mph - -   Partly Cloudy
3:00 AM 69.8 °F - 60.8 °F 73% 30.01 in 6.2 mi WSW 4.6 mph - N/A   Scattered Clouds
3:30 AM 69.8 °F - 60.8 °F 73% 30.01 in 6.2 mi SW 4.6 mph - N/A   Scattered Clouds
4:00 AM 69.8 °F - 60.8 °F 73% 30.01 in 6.2 mi WSW 4.6 mph - N/A   Scattered Clouds
4:30 AM 68.0 °F - 60.8 °F 78% 30.01 in 6.2 mi West 3.5 mph - N/A   Scattered Clouds
5:00 AM 66.2 °F - 60.8 °F 83% 30.01 in 6.2 mi West 4.6 mph - N/A   Scattered Clouds
5:30 AM 66.2 °F - 60.8 °F 83% 30.01 in 6.2 mi West 5.8 mph - N/A   Scattered Clouds
6:00 AM 65 °F - 61 °F 81% 29.98 in 6 mi West 6.9 mph - -  
6:00 AM 66.2 °F - 60.8 °F 83% 30.01 in - West 6.9 mph - N/A   Clear
6:30 AM 64.4 °F - 60.8 °F 88% 30.01 in - WSW 4.6 mph - N/A   Clear
7:00 AM 66.2 °F - 60.8 °F 83% 30.04 in - WSW 5.8 mph - N/A   Clear
7:30 AM 66.2 °F - 60.8 °F 83% 30.04 in - SW 5.8 mph - N/A   Clear
8:00 AM 68.0 °F - 62.6 °F 83% 30.04 in - SW 4.6 mph - N/A   Clear
8:30 AM 71.6 °F - 60.8 °F 69% 30.04 in - Variable 2.3 mph - N/A   Clear
9:00 AM 73 °F - 62 °F 59% 29.99 in 6 mi West 3.5 mph - -  
9:00 AM 73.4 °F - 60.8 °F 65% 30.04 in - Variable 2.3 mph - N/A   Clear
9:30 AM 75.2 °F - 62.6 °F 65% 30.04 in - West 3.5 mph - N/A   Clear
10:00 AM 78.8 °F - 62.6 °F 57% 30.04 in - Variable 2.3 mph - N/A   Clear
10:30 AM 80.6 °F 81.5 °F 60.8 °F 51% 30.04 in - Variable 2.3 mph - N/A   Clear
11:00 AM 82.4 °F 82.9 °F 60.8 °F 48% 30.04 in - North 3.5 mph - N/A   Clear
11:30 AM 84.2 °F 85.0 °F 62.6 °F 48% 30.04 in - Variable 3.5 mph - N/A   Clear
12:00 PM 86 °F - 61 °F 33% 29.94 in 6 mi WNW 4.6 mph - -  
12:00 PM 86.0 °F 86.1 °F 60.8 °F 43% 30.04 in - WNW 4.6 mph - N/A   Clear
12:30 PM 87.8 °F 87.1 °F 59.0 °F 38% 30.01 in - WNW 5.8 mph - N/A   Clear
1:00 PM 89.6 °F 87.7 °F 55.4 °F 31% 30.01 in - North 4.6 mph - N/A   Clear
1:30 PM 91.4 °F 89.1 °F 53.6 °F 28% 30.01 in - North 6.9 mph - N/A   Clear
2:00 PM 93.2 °F 91.3 °F 55.4 °F 28% 30.01 in - NW 6.9 mph - N/A   Clear
2:30 PM 95.0 °F 92.7 °F 53.6 °F 25% 29.98 in 6.2 mi NNW 5.8 mph - N/A   Partly Cloudy
3:00 PM 95 °F - 53 °F 16% 29.87 in 6 mi NW 5.8 mph - -   Scattered Clouds
3:00 PM 95.0 °F 92.7 °F 53.6 °F 25% 29.98 in 6.2 mi NW 6.9 mph - N/A   Partly Cloudy
3:30 PM 96.8 °F - 51.8 °F 22% 29.98 in 6.2 mi Variable 4.6 mph - N/A   Partly Cloudy
4:00 PM 96.8 °F - 51.8 °F 22% 29.98 in 6.2 mi Variable 3.5 mph - N/A   Partly Cloudy
4:30 PM 96.8 °F 94.4 °F 53.6 °F 23% 29.95 in 6.2 mi North 6.9 mph - N/A   Partly Cloudy
5:00 PM 96.8 °F 94.4 °F 53.6 °F 23% 29.95 in 6.2 mi ENE 5.8 mph - N/A   Partly Cloudy
5:30 PM 96.8 °F - 51.8 °F 22% 29.95 in 6.2 mi North 9.2 mph - N/A   Partly Cloudy
6:00 PM 98 °F - 51 °F 12% 29.83 in 6 mi NW 4.6 mph - -   Scattered Clouds
6:00 PM 98.6 °F - 51.8 °F 21% 29.95 in 6.2 mi NNW 3.5 mph - N/A   Partly Cloudy
6:30 PM 96.8 °F - 50.0 °F 20% 29.95 in 6.2 mi North 8.1 mph - N/A   Partly Cloudy
7:00 PM 96.8 °F - 48.2 °F 19% 29.98 in 6.2 mi North 9.2 mph - N/A   Partly Cloudy
7:30 PM 95.0 °F - 50.0 °F 22% 29.98 in - North 8.1 mph - N/A   Clear
8:00 PM 93.2 °F - 50.0 °F 23% 29.98 in - North 8.1 mph - N/A   Clear
8:30 PM 89.6 °F 87.3 °F 53.6 °F 29% 30.01 in - North 10.4 mph - N/A   Clear
9:00 PM 85 °F - 57 °F 28% 29.92 in 6 mi NNE 13.8 mph - -  
9:00 PM 86.0 °F 84.9 °F 57.2 °F 37% 30.01 in - NNE 15.0 mph - N/A   Clear
9:30 PM 82.4 °F 82.0 °F 57.2 °F 42% 30.04 in - NNE 12.7 mph - N/A   Clear
10:00 PM 82.4 °F 82.0 °F 57.2 °F 42% 30.04 in - NNE 8.1 mph - N/A   Clear
10:30 PM 80.6 °F 80.8 °F 57.2 °F 45% 30.04 in - NE 3.5 mph - N/A   Clear
11:00 PM 78.8 °F - 57.2 °F 47% 30.04 in - WSW 4.6 mph - N/A   Clear
11:30 PM 78.8 °F - 57.2 °F 47% 30.04 in - West 3.5 mph - N/A   Clear